DW8398 Weather Reports


time (UTC)temp
C
wind
direction
speed
KPH
gust
KPH
rain 1hr
cm
rain 24hr
cm
rain mn
cm
humidity
%
barometer
mb
20260510202542 17 167 1.6 8.0 0.00 0.30 0.00 79 1011.7
20260510202036 17 163 0.0 4.8 0.00 0.30 0.00 76 1011.9
20260510201545 17 277 0.0 8.0 0.00 0.30 0.00 74 1011.9
20260510201038 17 0 0.0 11.3 0.00 0.30 0.00 72 1011.9
20260510200539 18 284 3.2 11.3 0.00 0.30 0.00 70 1012.0
20260510200049 18 261 4.8 14.5 0.00 0.30 0.00 67 1011.9
20260510195538 18 265 4.8 14.5 0.00 0.43 0.00 67 1011.9
20260510195038 18 267 6.4 14.5 0.00 0.43 0.00 66 1011.8
20260510194600 18 275 8.0 12.9 0.00 0.43 0.00 64 1011.7
20260510194040 18 267 1.6 14.5 0.00 0.43 0.00 67 1011.5
20260510193538 18 252 6.4 14.5 0.00 0.43 0.00 66 1011.6
20260510193044 18 275 6.4 14.5 0.00 0.43 0.00 66 1011.6
20260510192539 18 286 3.2 12.9 0.00 0.43 0.00 67 1011.6
20260510192039 18 288 4.8 14.5 0.00 0.43 0.00 66 1011.5
20260510191548 19 259 6.4 14.5 0.00 0.43 0.00 63 1011.5
20260510191039 20 272 3.2 14.5 0.00 0.43 0.00 64 1011.6
20260510190535 20 286 6.4 14.5 0.00 0.43 0.00 62 1011.6
20260510190051 20 280 3.2 12.9 0.00 0.43 0.00 63 1011.5
20260510185539 20 225 6.4 19.3 0.00 0.56 0.00 64 1011.5
20260510185037 20 281 4.8 19.3 0.00 0.56 0.00 66 1011.5
20260510184551 19 237 6.4 19.3 0.00 0.56 0.00 63 1011.3
20260510184038 20 260 3.2 14.5 0.00 0.56 0.00 64 1011.4
20260510183541 20 250 4.8 12.9 0.00 0.56 0.00 65 1011.4
20260510183044 20 278 3.2 16.1 0.00 0.56 0.00 68 1011.4
20260510182538 20 261 4.8 16.1 0.00 0.56 0.00 68 1011.3
20260510182039 20 189 4.8 11.3 0.00 0.56 0.00 68 1011.2
20260510181546 20 253 3.2 14.5 0.00 0.56 0.00 69 1011.2
20260510181039 20 175 4.8 14.5 0.00 0.56 0.00 68 1011.2
20260510180539 20 167 4.8 16.1 0.00 0.56 0.00 66 1011.3
20260510180050 20 185 8.0 16.1 0.00 0.56 0.00 68 1011.3
20260510175541 20 148 3.2 20.9 0.00 0.61 0.00 67 1011.3
20260510175037 20 275 1.6 20.9 0.00 0.61 0.00 71 1011.3
20260510174554 20 306 8.0 17.7 0.00 0.61 0.00 61 1011.3
20260510174041 21 185 6.4 17.7 0.00 0.61 0.00 64 1011.4
20260510173542 21 272 4.8 17.7 0.00 0.61 0.00 67 1011.3
20260510173053 21 164 3.2 16.1 0.00 0.61 0.00 68 1011.3
20260510172543 21 254 6.4 16.1 0.00 0.61 0.00 66 1011.4
20260510172039 21 254 4.8 16.1 0.00 0.61 0.00 71 1011.6
20260510171548 20 281 4.8 12.9 0.00 0.61 0.00 75 1011.5
20260510171039 19 158 4.8 11.3 0.00 0.61 0.00 71 1011.5
20260510170538 20 171 0.0 9.7 0.00 0.61 0.00 73 1011.6
20260510170048 20 0 1.6 12.9 0.00 0.61 0.00 76 1011.7
20260510165540 20 309 4.8 12.9 0.00 0.66 0.00 75 1011.7
20260510165038 20 202 3.2 12.9 0.00 0.66 0.00 73 1011.7
20260510164553 20 259 3.2 14.5 0.00 0.66 0.00 74 1011.6
20260510164037 20 263 4.8 14.5 0.00 0.66 0.00 78 1011.6
20260510163538 19 180 4.8 12.9 0.00 0.66 0.00 74 1011.6
20260510163045 19 206 6.4 12.9 0.00 0.66 0.00 73 1011.8
20260510162536 19 159 4.8 12.9 0.00 0.66 0.00 78 1011.9
20260510162036 18 202 1.6 12.9 0.00 0.66 0.00 77 1011.8
20260510161551 19 267 3.2 14.5 0.00 0.66 0.00 72 1011.9
20260510161039 20 0 3.2 14.5 0.00 0.66 0.00 78 1011.9
20260510160539 19 188 4.8 14.5 0.00 0.66 0.00 74 1011.9
20260510160049 20 178 1.6 14.5 0.00 0.66 0.00 75 1011.9
20260510155538 19 204 4.8 14.5 0.00 0.69 0.00 76 1011.9
20260510155037 19 196 4.8 14.5 0.00 0.69 0.00 74 1011.8
20260510154552 19 287 1.6 17.7 0.00 0.69 0.00 79 1011.9
20260510154040 18 200 6.4 17.7 0.00 0.69 0.00 76 1011.9
20260510153539 19 217 3.2 14.5 0.00 0.69 0.00 80 1011.9
20260510153048 18 178 8.0 14.5 0.00 0.69 0.00 79 1011.9
20260510152541 18 178 6.4 14.5 0.00 0.69 0.00 78 1011.9
20260510152037 17 180 6.4 16.1 0.00 0.69 0.00 79 1011.9
20260510151548 18 190 3.2 17.7 0.00 0.69 0.00 80 1011.9
20260510151039 18 148 4.8 17.7 0.00 0.69 0.00 82 1011.8
20260510150541 17 169 6.4 16.1 0.00 0.69 0.00 78 1011.8
20260510150119 18 184 3.2 17.7 0.00 0.69 0.00 82 1011.9
20260510145538 17 153 4.8 17.7 0.00 0.69 0.00 79 1011.8
20260510145040 17 161 4.8 16.1 0.00 0.69 0.00 80 1011.6
20260510144606 18 184 1.6 16.1 0.00 0.69 0.00 81 1011.8
20260510144040 17 178 6.4 17.7 0.00 0.69 0.00 83 1011.8
20260510143538 17 270 6.4 17.7 0.00 0.69 0.00 81 1011.8
20260510143045 17 225 4.8 14.5 0.00 0.69 0.00 81 1011.8
20260510142538 17 271 3.2 14.5 0.00 0.69 0.00 84 1011.7
20260510142039 17 225 4.8 14.5 0.00 0.69 0.00 82 1011.7
20260510141544 17 191 4.8 12.9 0.00 0.69 0.00 83 1011.6
20260510141039 17 0 3.2 12.9 0.00 0.69 0.00 85 1011.5
20260510140540 17 185 3.2 12.9 0.00 0.69 0.00 82 1011.5
20260510140046 16 162 4.8 12.9 0.00 0.69 0.00 84 1011.6
20260510135538 16 202 6.4 14.5 0.00 0.69 0.00 83 1011.6
20260510135037 16 261 4.8 14.5 0.00 0.69 0.00 87 1011.5
20260510134549 15 172 6.4 16.1 0.00 0.69 0.00 86 1011.6
20260510134038 16 199 4.8 17.7 0.00 0.69 0.00 90 1011.7
20260510133537 15 250 4.8 17.7 0.00 0.69 0.00 89 1011.8
20260510133047 15 190 4.8 11.3 0.00 0.69 0.00 90 1011.7
20260510132539 15 194 0.0 9.7 0.00 0.69 0.00 91 1011.8
20260510132039 15 261 1.6 11.3 0.00 0.69 0.00 92 1011.9
20260510131547 13 234 3.2 11.3 0.00 0.69 0.00 93 1011.9
20260510131038 14 269 3.2 9.7 0.00 0.69 0.00 92 1011.8
20260510130539 14 267 1.6 9.7 0.00 0.69 0.00 94 1011.8
20260510130048 13 195 1.6 11.3 0.00 0.69 0.00 96 1011.9
20260510125537 13 161 3.2 12.9 0.00 0.71 0.00 98 1011.9
20260510125038 12 148 3.2 12.9 0.00 0.71 0.00 98 1011.8
20260510124549 12 179 4.8 12.9 0.00 0.71 0.00 97 1011.7
20260510124037 12 144 1.6 9.7 0.00 0.71 0.00 98 1011.8
20260510123537 12 183 3.2 8.0 0.00 0.71 0.00 98 1011.8
20260510123045 11 201 1.6 4.8 0.00 0.71 0.00 98 1011.8
20260510122539 11 208 0.0 0.0 0.00 0.71 0.00 98 1011.6
20260510122038 10 0 0.0 0.0 0.00 0.71 0.00 98 1011.6
20260510121553 10 0 0.0 3.2 0.00 0.71 0.00 98 1011.6
20260510121038 10 0 0.0 3.2 0.00 0.71 0.00 97 1011.6
20260510120538 10 196 0.0 1.6 0.00 0.71 0.00 97 1011.5
20260510120051 10 0 0.0 1.6 0.00 0.71 0.00 97 1011.5
20260510115539 10 0 0.0 1.6 0.00 0.74 0.00 97 1011.5
20260510115039 10 0 0.0 1.6 0.00 0.74 0.00 97 1011.5
20260510114606 10 0 0.0 0.0 0.00 0.74 0.00 97 1011.4
20260510114035 10 0 0.0 3.2 0.00 0.74 0.00 97 1011.4
20260510113538 10 0 0.0 3.2 0.00 0.74 0.00 97 1011.3
20260510113054 10 202 0.0 3.2 0.00 0.74 0.00 97 1011.3
20260510112537 10 0 0.0 0.0 0.00 0.74 0.00 97 1011.3
20260510112037 10 0 0.0 0.0 0.00 0.74 0.00 98 1011.4
20260510111546 10 0 0.0 0.0 0.00 0.74 0.00 98 1011.2
20260510111036 10 0 0.0 0.0 0.00 0.74 0.00 97 1011.2
20260510110541 10 0 0.0 0.0 0.00 0.74 0.00 97 1011.2
20260510110049 10 0 0.0 0.0 0.00 0.74 0.00 97 1011.1
20260510105541 10 0 0.0 1.6 0.00 0.76 0.00 97 1011.3
20260510105038 10 0 0.0 1.6 0.00 0.76 0.00 97 1011.1
20260510104555 10 0 0.0 1.6 0.00 0.76 0.00 97 1011.0
20260510104039 10 0 0.0 0.0 0.00 0.76 0.00 97 1011.0
20260510103539 10 0 0.0 1.6 0.00 0.76 0.00 97 1010.8
20260510103049 10 0 0.0 3.2 0.00 0.76 0.00 97 1010.8
20260510102536 10 0 0.0 4.8 0.00 0.76 0.00 97 1010.8
20260510102039 10 156 0.0 4.8 0.00 0.76 0.00 97 1010.8
20260510101548 10 136 0.0 4.8 0.00 0.76 0.00 97 1010.7
20260510101039 10 0 1.6 4.8 0.00 0.76 0.00 97 1010.6
20260510100538 9 193 0.0 3.2 0.00 0.76 0.00 97 1010.8
20260510100058 9 0 0.0 3.2 0.00 0.76 0.00 97 1010.7
20260510095538 9 0 0.0 4.8 0.00 0.84 0.00 97 1010.7
20260510095038 9 179 1.6 6.4 0.00 0.84 0.00 97 1010.5
20260510094552 9 142 1.6 8.0 0.00 0.84 0.00 97 1010.2
20260510094038 9 173 1.6 8.0 0.00 0.84 0.00 97 1010.4
20260510093538 9 0 1.6 8.0 0.00 0.84 0.00 97 1010.4
20260510093045 9 0 0.0 4.8 0.00 0.84 0.00 97 1010.3
20260510092539 9 201 0.0 4.8 0.00 0.84 0.00 97 1010.3
20260510092038 9 0 0.0 4.8 0.00 0.84 0.00 97 1010.2
20260510091544 9 0 0.0 8.0 0.00 0.84 0.00 97 1010.0
20260510091039 9 0 0.0 8.0 0.00 0.84 0.00 97 1009.9
20260510090543 9 157 0.0 3.2 0.00 0.84 0.00 97 1010.0
20260510090043 9 0 0.0 4.8 0.00 0.84 0.00 97 1010.1
20260510085539 9 0 0.0 4.8 0.00 0.89 0.00 97 1009.9
20260510085038 9 0 1.6 4.8 0.00 0.89 0.00 97 1009.8
20260510084548 9 79 1.6 3.2 0.00 0.89 0.00 97 1010.0
20260510084037 9 0 0.0 1.6 0.00 0.89 0.00 97 1010.2
20260510083536 9 0 0.0 1.6 0.00 0.89 0.00 97 1010.2
20260510083048 9 0 0.0 3.2 0.00 0.89 0.00 97 1010.2
20260510082540 9 0 0.0 3.2 0.00 0.89 0.00 97 1010.2
20260510082038 9 0 0.0 3.2 0.00 0.89 0.00 97 1010.3
20260510081546 9 96 0.0 3.2 0.00 0.89 0.00 97 1010.3
20260510081038 9 0 0.0 3.2 0.00 0.89 0.00 97 1010.6
20260510080539 9 117 0.0 3.2 0.00 0.89 0.00 97 1010.6
20260510080050 9 0 0.0 4.8 0.00 0.89 0.00 97 1010.6
20260510075538 9 0 0.0 6.4 0.00 0.97 0.00 97 1010.7
20260510075036 10 144 1.6 6.4 0.00 0.97 0.00 97 1010.7
20260510074544 10 142 1.6 8.0 0.00 0.97 0.00 97 1010.7
20260510074039 10 0 1.6 8.0 0.00 0.97 0.00 97 1010.8
20260510073539 10 171 1.6 8.0 0.00 0.97 0.00 97 1010.7
20260510073044 10 155 1.6 8.0 0.00 0.97 0.00 97 1010.8
20260510072539 10 125 3.2 6.4 0.00 0.97 0.00 97 1011.0
20260510072043 10 154 1.6 9.7 0.00 0.97 0.00 97 1011.0
20260510071548 10 156 3.2 9.7 0.00 0.97 0.00 97 1011.0
20260510071038 10 146 1.6 4.8 0.00 0.97 0.00 97 1011.1
20260510070538 10 0 0.0 4.8 0.00 0.97 0.00 97 1011.2
20260510070105 10 0 0.0 4.8 0.00 0.97 0.00 97 1011.0
20260510065540 10 220 0.0 3.2 0.00 0.97 0.00 97 1011.1
20260510065038 10 0 0.0 3.2 0.00 0.97 0.00 97 1011.1
20260510064552 10 344 0.0 3.2 0.00 0.97 0.00 97 1011.1
20260510064039 10 0 0.0 3.2 0.00 0.97 0.00 97 1010.7
20260510063538 10 0 0.0 1.6 0.00 0.97 0.00 97 1010.7
20260510063048 10 0 0.0 1.6 0.00 0.97 0.00 97 1010.4
20260510062536 10 0 0.0 1.6 0.00 0.97 0.00 97 1010.5
20260510062039 9 0 0.0 0.0 0.00 0.97 0.00 97 1010.5
20260510061551 9 0 0.0 0.0 0.00 0.97 0.00 97 1010.5
20260510061039 9 0 0.0 0.0 0.00 0.97 0.00 97 1010.5
20260510060539 9 0 0.0 4.8 0.00 0.97 0.00 97 1010.6
20260510060043 9 0 0.0 4.8 0.00 0.97 0.00 97 1010.4
20260510055536 9 59 0.0 4.8 0.00 0.97 0.00 97 1010.5
20260510055036 8 0 0.0 0.0 0.00 0.97 0.00 97 1010.6
20260510054553 8 0 0.0 0.0 0.00 0.97 0.00 97 1010.6
20260510054037 8 0 0.0 1.6 0.00 0.97 0.00 97 1010.6
20260510053539 8 0 0.0 1.6 0.00 0.97 0.00 97 1010.7
20260510053047 8 0 0.0 1.6 0.00 0.97 0.00 97 1010.6
20260510052536 8 0 0.0 1.6 0.00 0.97 0.00 97 1010.7
20260510052038 7 0 0.0 0.0 0.00 0.97 0.00 96 1010.5
20260510051548 7 0 0.0 1.6 0.00 0.97 0.00 97 1010.5
20260510051039 7 0 0.0 1.6 0.00 0.97 0.00 97 1010.3
20260510050542 7 0 0.0 1.6 0.00 0.97 0.00 96 1010.3
20260510050045 7 0 0.0 1.6 0.00 0.97 0.00 96 1010.3
20260510045539 7 0 0.0 1.6 0.00 0.97 0.00 96 1010.3
20260510045038 7 0 0.0 1.6 0.00 0.97 0.00 96 1010.3
20260510044553 7 0 0.0 1.6 0.00 0.97 0.00 96 1010.4
20260510044040 8 0 0.0 1.6 0.00 0.97 0.00 96 1010.4
20260510043539 7 0 0.0 1.6 0.00 0.97 0.00 96 1010.3
20260510043045 7 0 0.0 0.0 0.00 0.97 0.00 96 1010.4
20260510042539 7 0 0.0 0.0 0.00 0.97 0.00 96 1010.4
20260510042041 8 0 0.0 0.0 0.00 0.97 0.00 96 1010.2
20260510041553 8 0 0.0 0.0 0.00 0.97 0.00 96 1010.2
20260510041037 8 0 0.0 0.0 0.00 0.97 0.00 96 1010.3
20260510040542 8 0 0.0 0.0 0.00 0.97 0.00 96 1010.3
20260510040049 8 0 0.0 0.0 0.00 0.97 0.00 96 1010.3
20260510035538 8 0 0.0 1.6 0.00 0.97 0.97 96 1010.3
20260510035036 8 0 0.0 1.6 0.00 0.97 0.97 96 1010.3
20260510034550 8 0 0.0 3.2 0.00 0.97 0.97 96 1010.4
20260510034040 8 344 1.6 3.2 0.00 0.97 0.97 95 1010.4
20260510033537 8 0 0.0 3.2 0.00 0.97 0.97 96 1010.3
20260510033103 8 46 1.6 3.2 0.00 0.97 0.97 96 1010.3
20260510032540 7 0 0.0 3.2 0.00 0.97 0.97 96 1010.5
20260510032039 7 0 0.0 3.2 0.00 0.97 0.97 96 1010.4
20260510031544 7 0 0.0 1.6 0.00 0.97 0.97 95 1010.4
20260510031038 7 0 0.0 1.6 0.00 0.97 0.97 95 1010.5
20260510030539 7 0 0.0 0.0 0.00 0.97 0.97 95 1010.6
20260510030043 7 0 0.0 0.0 0.00 0.97 0.97 95 1010.5
20260510025537 8 0 0.0 0.0 0.00 0.97 0.97 95 1010.3
20260510025037 8 0 0.0 0.0 0.00 0.97 0.97 95 1010.2
20260510024549 8 0 0.0 1.6 0.00 0.97 0.97 95 1010.3
20260510024035 8 0 0.0 1.6 0.00 0.97 0.97 95 1010.3
20260510023536 8 0 0.0 0.0 0.00 0.97 0.97 95 1010.3
20260510023043 8 0 0.0 0.0 0.00 0.97 0.97 95 1010.2
20260510022539 8 0 0.0 0.0 0.00 0.97 0.97 95 1010.2
20260510022039 8 0 0.0 0.0 0.00 0.97 0.97 95 1010.2
20260510021551 8 0 0.0 0.0 0.00 0.97 0.97 95 1010.2
20260510021036 8 0 0.0 0.0 0.00 0.97 0.97 95 1010.3
20260510020536 9 0 0.0 0.0 0.00 0.97 0.97 95 1010.2
20260510020047 9 0 0.0 0.0 0.00 0.97 0.97 95 1010.4
20260510015539 9 0 0.0 0.0 0.00 0.97 0.97 95 1010.5
20260510015043 9 0 0.0 0.0 0.00 0.97 0.97 95 1010.5
20260510014600 9 0 0.0 1.6 0.00 0.97 0.97 94 1010.5
20260510014039 9 0 0.0 1.6 0.00 0.97 0.97 94 1010.3
20260510013539 9 0 0.0 1.6 0.00 0.97 0.97 94 1010.2
20260510013056 9 0 0.0 1.6 0.00 0.97 0.97 94 1010.1
20260510012539 10 0 0.0 1.6 0.00 0.97 0.97 94 1010.1
20260510012043 10 0 0.0 1.6 0.00 0.97 0.97 94 1010.0
20260510011549 10 0 0.0 1.6 0.00 0.97 0.97 94 1010.1
20260510011038 10 0 0.0 0.0 0.00 0.97 0.97 94 1010.0
20260510010535 10 0 0.0 1.6 0.00 0.97 0.97 94 1010.1
20260510010056 10 0 0.0 1.6 0.00 0.97 0.97 94 1010.3
20260510005537 10 0 0.0 0.0 0.00 0.97 0.97 94 1010.1
20260510005038 10 0 0.0 1.6 0.00 0.97 0.97 93 1010.1
20260510004551 10 0 0.0 3.2 0.00 0.97 0.97 93 1009.9
20260510004039 10 336 0.0 3.2 0.00 0.97 0.97 93 1009.8
20260510003539 10 0 0.0 3.2 0.00 0.97 0.97 93 1009.6
20260510003058 10 0 0.0 3.2 0.00 0.97 0.97 92 1009.5
20260510002538 11 336 0.0 3.2 0.00 0.97 0.97 92 1009.5
20260510002036 11 296 0.0 1.6 0.00 0.97 0.97 92 1009.4
20260510001546 11 0 0.0 3.2 0.00 0.97 0.97 92 1009.4
20260510001038 11 259 0.0 6.4 0.00 0.97 0.97 92 1009.3
20260510000539 11 0 1.6 8.0 0.00 0.97 0.97 92 1009.2
20260510000054 11 119 0.0 8.0 0.00 0.97 0.97 92 1009.1
20260509235543 11 167 1.6 12.9 0.00 0.97 0.97 92 1009.0
20260509235038 12 164 3.2 12.9 0.00 0.97 0.97 92 1008.9
20260509234604 12 157 4.8 11.3 0.00 0.97 0.97 92 1008.9
20260509234040 12 152 4.8 11.3 0.00 0.97 0.97 92 1008.9
20260509233542 12 163 3.2 11.3 0.00 0.97 0.97 92 1009.0
20260509233047 12 171 3.2 11.3 0.00 0.97 0.97 92 1009.0
20260509232538 12 175 1.6 8.0 0.00 0.97 0.97 92 1009.0
20260509232040 12 158 1.6 6.4 0.00 0.97 0.97 92 1009.1
20260509231545 12 157 0.0 3.2 0.00 0.97 0.97 93 1009.2
20260509231038 12 0 0.0 6.4 0.00 0.97 0.97 93 1009.1
20260509230538 12 0 0.0 8.0 0.00 0.97 0.97 93 1009.2
20260509230044 12 0 1.6 11.3 0.00 0.97 0.97 93 1009.0
20260509225544 12 157 4.8 12.9 0.00 0.97 0.97 93 1009.1
20260509225039 12 198 3.2 12.9 0.00 0.97 0.97 94 1009.1
20260509224540 12 151 1.6 9.7 0.00 0.97 0.97 94 1009.2
20260509224039 12 200 3.2 9.7 0.00 0.97 0.97 93 1009.1
20260509223539 11 144 1.6 9.7 0.00 0.97 0.97 94 1009.1
20260509223056 11 167 3.2 9.7 0.00 0.97 0.97 94 1009.2
20260509222538 11 137 3.2 8.0 0.00 0.97 0.97 94 1009.1
20260509222039 11 144 1.6 8.0 0.00 0.97 0.97 94 1009.3
20260509221550 11 190 3.2 12.9 0.00 0.97 0.97 94 1009.4
20260509221039 11 177 3.2 12.9 0.00 0.97 0.97 94 1009.2
20260509220540 12 172 4.8 11.3 0.03 0.97 0.97 94 1009.3
20260509220058 11 153 4.8 11.3 0.03 0.97 0.97 94 1009.2
20260509215539 12 151 4.8 9.7 0.03 0.97 0.97 94 1009.4
20260509215043 12 145 3.2 8.0 0.05 0.97 0.97 94 1009.3
20260509214543 12 180 3.2 8.0 0.05 0.97 0.97 94 1009.3
20260509214039 12 157 1.6 8.0 0.08 0.97 0.97 94 1009.4
20260509213538 12 214 0.0 9.7 0.10 0.97 0.97 95 1009.5
20260509213045 11 175 3.2 9.7 0.13 0.97 0.97 94 1009.4
20260509212539 11 159 3.2 8.0 0.15 0.97 0.97 94 1009.4
20260509212039 11 171 3.2 8.0 0.18 0.97 0.97 94 1009.3
20260509211546 11 161 1.6 9.7 0.20 0.97 0.97 94 1009.4
20260509211039 11 160 1.6 9.7 0.23 0.97 0.97 94 1009.4
20260509210539 11 180 4.8 11.3 0.23 0.94 0.94 94 1009.5
20260509210048 11 186 4.8 11.3 0.28 0.94 0.94 94 1009.5
20260509205538 11 198 1.6 12.9 0.28 0.94 0.94 94 1009.6
20260509205039 11 166 3.2 12.9 0.28 0.91 0.91 94 1009.7
20260509204600 11 161 6.4 11.3 0.28 0.91 0.91 93 1009.9
20260509204039 11 167 4.8 12.9 0.28 0.89 0.89 93 1009.9
20260509203539 11 237 3.2 14.5 0.25 0.86 0.86 93 1010.0
20260509203045 11 161 6.4 14.5 0.23 0.84 0.84 93 1010.0